This is the latest recevied weather packets stored in our database for station/object KF4PPJ. If no packets are shown the sender has not sent any weather packets the latest 10 day(s).
| Time | Temp. | Humidity | Pressure | Rain* | Wind** | Luminosity | Snow |
|---|---|---|---|---|---|---|---|
| 1777603933 | 16.11° C | 73% | 1018.2 hPa | 0 mm | - | 12 W/m² | - |
| 1777603630 | 16.67° C | 72% | 1018.2 hPa | 0 mm | - | 14 W/m² | - |
| 1777603327 | 16.67° C | 71% | 1018.4 hPa | 0 mm | - | 16 W/m² | - |
| 1777603016 | 17.22° C | 69% | 1018.2 hPa | 0 mm | - | 19 W/m² | - |
| 1777602712 | 17.22° C | 69% | 1018.2 hPa | 0 mm | - | 21 W/m² | - |
| 1777602407 | 17.78° C | 66% | 1018.3 hPa | 0 mm | - | 24 W/m² | - |
| 1777602104 | 18.33° C | 65% | 1018.1 hPa | 0 mm | - | 26 W/m² | - |
| 1777601799 | 18.89° C | 63% | 1018.3 hPa | 0 mm | - | 31 W/m² | - |
| 1777601494 | 18.89° C | 63% | 1018.2 hPa | 0 mm | - | 33 W/m² | - |
| 1777601190 | 19.44° C | 62% | 1018.4 hPa | 0 mm | - | 36 W/m² | - |
| 1777600888 | 20° C | 61% | 1018.4 hPa | 0 mm | - | 39 W/m² | - |
| 1777600583 | 20° C | 59% | 1018.4 hPa | 0 mm | - | 40 W/m² | - |
| 1777600279 | 20° C | 60% | 1018.5 hPa | 0 mm | - | 41 W/m² | - |
| 1777599975 | 20.56° C | 59% | 1018.5 hPa | 0 mm | - | 44 W/m² | - |
| 1777599672 | 20.56° C | 57% | 1018.4 hPa | 0 mm | - | 46 W/m² | - |
| 1777599368 | 21.11° C | 57% | 1018.5 hPa | 0 mm | - | 54 W/m² | - |
| 1777599065 | 21.11° C | 56% | 1018.4 hPa | 0 mm | - | 49 W/m² | - |
| 1777598762 | 21.67° C | 54% | 1018.4 hPa | 0 mm | - | 52 W/m² | - |
| 1777598457 | 21.67° C | 53% | 1018.4 hPa | 0 mm | - | 134 W/m² | - |
| 1777598156 | 21.67° C | 54% | 1018.5 hPa | 0 mm | - | 228 W/m² | - |
| 1777597850 | 21.11° C | 55% | 1018.5 hPa | 0 mm | - | 230 W/m² | - |
| 1777597545 | 21.11° C | 55% | 1018.7 hPa | 0 mm | - | 244 W/m² | - |
| 1777597241 | 21.67° C | 54% | 1018.7 hPa | 0 mm | - | 275 W/m² | - |
| 1777596936 | 21.67° C | 54% | 1018.7 hPa | 0 mm | - | 292 W/m² | - |
| 1777596634 | 22.22° C | 53% | 1018.9 hPa | 0 mm | - | 284 W/m² | - |
* Rain latest hour (hover to see other rain measurements)
** Current wind speed in m/s (hover to see current wind gust speed)